Date String (YYYY-MM-DD hh:mm:ss) UTC,Instrument flags,absolute air pressure of the measurement (hPa),sample flow rate (lpm),inlet stack bypass flow (lpm),air temperature of the measurement (°C),ambient temperature measured by the external sensor (°C),aerosol sample conditioner tube jacket temperature (°C),OPC LED temperature (°C),internal box temperature (°C),relative humidity of the measurement (%),span deviation,mass concentration of particles derived from Lorenz-Mie calculation of OPC scattering (μg/m³),mass concentration of particles derived from Lorenz-Mie calculation of OPC scattering (μg/m³),mass concentration of particles derived from Lorenz-Mie calculation of OPC scattering (μg/m³)
DateTimeUTC,F1_M11,P_M11,Q1_M11,Q2_M11,T1_M11,T2_M11,T3_M11,T4_M11,T5_M11,U1_M11,ZSPAN_M11,X0_M11,X2_M11,X1_M11
2023-08-01 05:00:00,SystemResetWarning,0837.8,5.02,000.00,032.2,026.8,000.0,040.0,031.9,34.9,0000.0,0007.09,0004.25,0003.69
2023-08-01 05:01:00,SystemResetWarning,0837.7,4.98,000.00,032.3,025.8,000.0,039.9,031.8,34.6,0000.0,0007.13,0004.27,0003.69
2023-08-01 05:02:00,SystemResetWarning,0837.8,5.02,000.00,032.2,025.7,000.0,039.9,031.5,34.7,0000.0,0007.13,0004.26,0003.68
2023-08-01 05:03:00,SystemResetWarning,0837.7,4.99,000.00,032.0,026.0,000.0,039.9,031.3,34.9,0000.0,0007.13,0004.26,0003.67
2023-08-01 05:04:00,SystemResetWarning,0837.6,5.01,000.00,031.9,026.3,000.0,039.9,031.4,34.9,0000.0,0007.13,0004.26,0003.66
2023-08-01 05:05:00,SystemResetWarning,0837.6,4.99,000.00,031.9,026.6,000.0,039.9,031.5,34.4,0000.0,0007.08,0004.25,0003.65
2023-08-01 05:06:00,SystemResetWarning,0837.7,4.99,000.00,031.9,026.9,000.0,039.9,031.5,34.2,0000.0,0007.00,0004.20,0003.63
2023-08-01 05:07:00,SystemResetWarning,0837.6,5.02,000.00,031.9,027.2,000.0,039.9,031.6,34.3,0000.0,0006.98,0004.18,0003.61
2023-08-01 05:08:00,SystemResetWarning,0837.5,5.00,000.00,031.9,027.4,000.0,039.9,031.6,34.2,0000.0,0006.84,0004.12,0003.59
2023-08-01 05:09:00,SystemResetWarning,0837.4,5.00,000.00,031.8,027.6,000.0,039.9,031.6,34.0,0000.0,0007.76,0004.07,0003.59
2023-08-01 05:10:00,SystemResetWarning,0837.4,4.99,000.00,031.8,027.7,000.0,039.8,031.6,33.5,0000.0,0007.86,0004.03,0003.57
2023-08-01 05:11:00,SystemResetWarning,0837.2,5.00,000.00,031.7,027.8,000.0,039.8,031.6,33.1,0000.0,0007.78,0003.98,0003.54
2023-08-01 05:12:00,SystemResetWarning,0837.2,5.00,000.00,031.7,027.9,000.0,039.8,031.7,32.3,0000.0,0007.80,0003.96,0003.53
2023-08-01 05:13:00,SystemResetWarning,0837.2,5.00,000.00,031.7,028.0,000.0,039.8,031.7,32.6,0000.0,0007.87,0003.96,0003.52
2023-08-01 05:14:00,SystemResetWarning,0837.2,5.01,000.00,031.6,028.1,000.0,039.8,031.7,31.9,0000.0,0007.84,0003.96,0003.51
2023-08-01 05:15:00,SystemResetWarning,0837.2,5.00,000.00,031.6,028.2,000.0,039.8,031.7,31.7,0000.0,0007.93,0003.96,0003.50
2023-08-01 05:16:00,SystemResetWarning,0837.2,4.99,000.00,031.6,028.2,000.0,039.8,031.7,31.8,0000.0,0008.08,0003.98,0003.51
2023-08-01 05:17:00,SystemResetWarning,0837.2,4.99,000.00,031.5,028.3,000.0,039.8,031.7,32.3,0000.0,0008.29,0004.02,0003.52
2023-08-01 05:18:00,SystemResetWarning,0837.2,5.00,000.00,031.5,028.4,000.0,039.7,031.8,32.0,0000.0,0008.33,0004.05,0003.54
2023-08-01 05:19:00,SystemResetWarning,0837.1,5.00,000.00,031.5,028.4,000.0,039.7,031.8,31.3,0000.0,0008.87,0004.10,0003.57
2023-08-01 05:20:00,SystemResetWarning,0837.0,5.01,000.00,031.4,028.5,000.0,039.7,031.8,31.1,0000.0,0008.49,0004.15,0003.59
2023-08-01 05:21:00,SystemResetWarning,0836.9,5.00,000.00,031.4,028.2,000.0,039.7,031.8,31.3,0000.0,0008.34,0004.19,0003.61
2023-08-01 05:22:00,SystemResetWarning,0837.0,4.99,000.00,031.4,026.6,000.0,039.5,031.6,31.3,0000.0,0008.35,0004.22,0003.65
2023-08-01 05:23:00,SystemResetWarning,0836.9,5.01,000.00,031.3,025.7,000.0,039.4,031.4,31.6,0000.0,0008.34,0004.24,0003.68
2023-08-01 05:24:00,SystemResetWarning,0836.9,5.01,000.00,031.1,025.6,000.0,039.3,031.1,32.2,0000.0,0008.25,0004.23,0003.69
2023-08-01 05:25:00,SystemResetWarning,0836.8,5.00,000.00,031.0,025.9,000.0,039.3,031.1,32.1,0000.0,0008.59,0004.25,0003.71
2023-08-01 05:26:00,SystemResetWarning,0836.9,5.00,000.00,030.9,026.3,000.0,039.3,031.1,32.3,0000.0,0008.55,0004.24,0003.72
2023-08-01 05:27:00,SystemResetWarning,0836.9,5.00,000.00,030.8,026.7,000.0,039.3,031.2,32.5,0000.0,0008.43,0004.24,0003.72
2023-08-01 05:28:00,SystemResetWarning,0836.9,5.00,000.00,030.8,027.0,000.0,039.3,031.2,32.6,0000.0,0008.24,0004.22,0003.70
2023-08-01 05:29:00,SystemResetWarning,0836.9,5.00,000.00,030.7,027.3,000.0,039.2,031.3,32.8,0000.0,0008.29,0004.18,0003.68
2023-08-01 05:30:00,SystemResetWarning,0836.9,5.00,000.00,030.7,027.5,000.0,039.2,031.3,32.7,0000.0,0007.94,0004.12,0003.64
2023-08-01 05:31:00,SystemResetWarning,0836.8,4.99,000.00,030.7,027.7,000.0,039.2,031.4,32.9,0000.0,0007.20,0004.03,0003.59
2023-08-01 05:32:00,SystemResetWarning,0836.8,4.99,000.00,030.7,027.8,000.0,039.1,031.4,33.0,0000.0,0006.87,0003.95,0003.55
2023-08-01 05:33:00,SystemResetWarning,0836.8,5.00,000.00,030.6,028.0,000.0,039.1,031.4,32.7,0000.0,0006.74,0003.89,0003.49
2023-08-01 05:34:00,SystemResetWarning,0836.7,5.00,000.00,030.6,028.1,000.0,039.1,031.4,32.6,0000.0,0006.60,0003.82,0003.43
2023-08-01 05:35:00,SystemResetWarning,0836.7,5.00,000.00,030.6,028.2,000.0,039.1,031.5,32.4,0000.0,0006.49,0003.76,0003.38
2023-08-01 05:36:00,SystemResetWarning,0836.6,5.00,000.00,030.6,028.3,000.0,039.0,031.5,32.3,0000.0,0005.75,0003.68,0003.33
2023-08-01 05:37:00,SystemResetWarning,0836.6,5.00,000.00,030.6,028.3,000.0,039.0,031.5,32.4,0000.0,0005.52,0003.63,0003.29
2023-08-01 05:38:00,SystemResetWarning,0836.7,5.00,000.00,030.6,028.4,000.0,039.0,031.6,32.4,0000.0,0005.63,0003.58,0003.24
2023-08-01 05:39:00,SystemResetWarning,0836.6,5.00,000.00,030.6,028.5,000.0,039.0,031.6,32.7,0000.0,0006.53,0003.54,0003.20
2023-08-01 05:40:00,SystemResetWarning,0836.6,5.00,000.00,030.6,027.8,000.0,038.9,031.6,32.7,0000.0,0006.09,0003.46,0003.16
2023-08-01 05:41:00,SystemResetWarning,0836.6,5.00,000.00,030.5,026.2,000.0,038.8,031.3,32.9,0000.0,0005.86,0003.43,0003.13
2023-08-01 05:42:00,SystemResetWarning,0836.6,5.00,000.00,030.4,025.6,000.0,038.7,031.0,33.4,0000.0,0005.93,0003.44,0003.11
2023-08-01 05:43:00,SystemResetWarning,0836.7,5.01,000.00,030.2,025.7,000.0,038.7,030.8,33.6,0000.0,0005.95,0003.43,0003.09
2023-08-01 05:44:00,SystemResetWarning,0836.8,5.01,000.00,030.1,026.0,000.0,038.7,030.8,34.0,0000.0,0006.02,0003.43,0003.06
2023-08-01 05:45:00,SystemResetWarning,0836.9,5.00,000.00,030.1,026.4,000.0,038.7,030.9,34.3,0000.0,0006.13,0003.45,0003.04
2023-08-01 05:46:00,SystemResetWarning,0836.9,4.97,000.00,030.1,026.8,000.0,038.6,031.0,35.6,0000.0,0006.07,0003.43,0003.02
2023-08-01 05:47:00,SystemResetWarning,0837.0,5.03,000.00,030.2,027.1,000.0,038.6,031.1,36.8,0000.0,0005.96,0003.41,0003.00
2023-08-01 05:48:00,SystemResetWarning,0836.9,5.00,000.00,030.4,027.3,000.0,038.6,031.2,35.5,0000.0,0005.89,0003.38,0002.98
2023-08-01 05:49:00,SystemResetWarning,0836.9,4.99,000.00,030.7,027.5,000.0,038.6,031.4,33.5,0000.0,0005.76,0003.35,0002.96
2023-08-01 05:50:00,SystemResetWarning,0836.9,5.00,000.00,030.9,027.6,000.0,038.6,031.4,33.8,0000.0,0006.07,0003.33,0002.96
2023-08-01 05:51:00,SystemResetWarning,0836.9,5.00,000.00,031.0,027.8,000.0,038.7,031.4,33.4,0000.0,0005.91,0003.35,0002.97
2023-08-01 05:52:00,SystemResetWarning,0836.9,5.00,000.00,031.0,027.9,000.0,038.7,031.4,33.1,0000.0,0005.93,0003.35,0002.98
2023-08-01 05:53:00,SystemResetWarning,0836.9,5.00,000.00,031.1,028.0,000.0,038.8,031.4,32.0,0000.0,0005.83,0003.32,0002.99
2023-08-01 05:54:00,SystemResetWarning,0836.9,5.00,000.00,031.1,028.0,000.0,038.9,031.4,31.6,0000.0,0005.76,0003.30,0002.98
2023-08-01 05:55:00,SystemResetWarning,0836.9,5.00,000.00,031.1,028.1,000.0,038.9,031.4,31.9,0000.0,0005.63,0003.28,0002.97
2023-08-01 05:56:00,SystemResetWarning,0837.0,5.00,000.00,031.1,028.1,000.0,039.0,031.4,31.7,0000.0,0005.47,0003.22,0002.95
2023-08-01 05:57:00,SystemResetWarning,0836.9,4.99,000.00,031.1,028.2,000.0,039.0,031.5,31.2,0000.0,0005.47,0003.21,0002.94
2023-08-01 05:58:00,SystemResetWarning,0837.0,5.00,000.00,031.1,028.2,000.0,039.1,031.5,31.3,0000.0,0005.51,0003.22,0002.93
2023-08-01 05:59:00,SystemResetWarning,0836.9,5.00,000.00,031.1,028.3,000.0,039.1,031.5,31.5,0000.0,0005.47,0003.22,0002.94
